Weather History for Bangkok (Don Mueang), Thailand

Change the Weather History Date:

Monday, November 11, 2013

  Actual Average Record
Temperature  
Mean Temperature 88 °F -  
Max Temperature 96 °F 87 °F 96 °F (2004)
Min Temperature 79 °F 73 °F 71 °F (2001)
Cooling Degree Days 22    
Growing Degree Days 38 (Base 50)    
Moisture  
Dew Point 73 °F    
Average Humidity 63    
Maximum Humidity 84    
Minimum Humidity 37    
Precipitation  
Precipitation 0.00 in 0.04 in - ()
Sea Level Pressure  
Sea Level Pressure 29.74 in    
Wind  
Wind Speed 3 mph ()    
Max Wind Speed 9 mph    
Max Gust Speed -    
Visibility 6.0 miles    
Events      
Averages and records for this station are not official NWS values.
T = Trace of Precipitation, MM = Missing Value Source: Averaged Metar Reports

Daily Weather History Graph

Daily Weather History Graph

Search for Another Location

Airport:

Trip Planner

Search our weather history database for the weather conditions in past years. The results will help you decide how hot, cold, wet, or windy it might be!

Date:

Astronomy

Nov. 11, 2013 Rise Set
Actual Time 6:15 AM ICT 5:47 PM ICT
Civil Twilight 5:53 AM ICT 6:09 PM ICT
Nautical Twilight 5:27 AM ICT 6:35 PM ICT
Astronomical Twilight 5:02 AM ICT 7:00 PM ICT
Moon 1:11 PM ICT (11/11) 12:29 AM ICT (11/11)
Length of Visible Light 12h 16m
Length of Day
11h 31m
First Quarter, 61% of the Moon is Illuminated
Nov 11
First Quarter
Nov 17
Full
Nov 26
Last Quarter
Dec 3
New
Dec 9
First Quarter

Hourly Weather History & Observations

Time (ICT) Temp. Heat Index Dew Point Humidity Pressure Visibility Wind Dir Wind Speed Gust Speed Precip Events Conditions
12:00 AM 84.2 °F 89.6 °F 71.6 °F 66% 29.77 in 6.2 mi NW 2.3 mph - N/A   Scattered Clouds
12:30 AM 84.2 °F 89.6 °F 71.6 °F 66% 29.77 in 6.2 mi NNW 3.5 mph - N/A   Scattered Clouds
1:00 AM 83 °F - 73 °F 64% 29.77 in 6 mi NW 3.5 mph - -   Scattered Clouds
1:00 AM 84.2 °F 90.9 °F 73.4 °F 70% 29.77 in 6.2 mi NW 3.5 mph - N/A   Scattered Clouds
1:30 AM 82.4 °F 88.2 °F 73.4 °F 74% 29.74 in 6.2 mi WNW 4.6 mph - N/A   Scattered Clouds
2:00 AM 82.4 °F 88.2 °F 73.4 °F 74% 29.74 in 6.2 mi NW 3.5 mph - N/A   Scattered Clouds
2:30 AM 82.4 °F 88.2 °F 73.4 °F 74% 29.74 in 6.2 mi North 4.6 mph - N/A   Scattered Clouds
3:00 AM 82.4 °F 88.2 °F 73.4 °F 74% 29.74 in 6.2 mi WNW 4.6 mph - N/A   Scattered Clouds
3:30 AM 82.4 °F 88.2 °F 73.4 °F 74% 29.71 in 6.2 mi WNW 3.5 mph - N/A   Scattered Clouds
4:00 AM 80.6 °F 86.2 °F 75.2 °F 84% 29.71 in 5.6 mi WNW 4.6 mph - N/A   Unknown
4:30 AM 80.6 °F 86.2 °F 75.2 °F 84% 29.71 in 5.6 mi WNW 4.6 mph - N/A   Unknown
5:00 AM 80.6 °F 86.2 °F 75.2 °F 84% 29.71 in 5.6 mi NNW 3.5 mph - N/A   Unknown
5:30 AM 80.6 °F 86.2 °F 75.2 °F 84% 29.71 in 5.6 mi NNW 3.5 mph - N/A   Unknown
6:00 AM 80.6 °F 85.4 °F 73.4 °F 79% 29.74 in 5.6 mi WNW 3.5 mph - N/A   Unknown
6:30 AM 80.6 °F 85.4 °F 73.4 °F 79% 29.74 in 5.6 mi WNW 3.5 mph - N/A   Unknown
7:00 AM 80 °F - 74 °F 77% 29.78 in 6 mi WNW 3.5 mph - -   Mist
7:00 AM 80.6 °F 85.4 °F 73.4 °F 79% 29.77 in 5.6 mi WNW 3.5 mph - N/A   Unknown
7:30 AM 80.6 °F 85.4 °F 73.4 °F 79% 29.77 in 5.6 mi WNW 3.5 mph - N/A   Unknown
8:00 AM 82.4 °F 88.2 °F 73.4 °F 74% 29.77 in 5.6 mi WNW 3.5 mph - N/A   Unknown
8:30 AM 82.4 °F 87.2 °F 71.6 °F 70% 29.80 in 5.6 mi NNW 4.6 mph - N/A   Unknown
9:00 AM 84.2 °F 89.6 °F 71.6 °F 66% 29.80 in 5.6 mi Calm Calm - N/A   Unknown
9:30 AM 86.0 °F 91.8 °F 71.6 °F 62% 29.83 in 5.6 mi North 5.8 mph - N/A   Mostly Cloudy
10:00 AM 87.8 °F 93.8 °F 71.6 °F 58% 29.83 in 5.6 mi NNW 5.8 mph - N/A   Mostly Cloudy
10:30 AM 87.8 °F 93.8 °F 71.6 °F 58% 29.80 in 5.6 mi East 3.5 mph - N/A   Mostly Cloudy
11:00 AM 91.4 °F 100.1 °F 73.4 °F 55% 29.80 in 6.2 mi Calm Calm - N/A   Mostly Cloudy
11:30 AM 91.4 °F 100.1 °F 73.4 °F 55% 29.77 in 6.2 mi NNW 2.3 mph - N/A   Mostly Cloudy
12:00 PM 93.2 °F 100.5 °F 71.6 °F 49% 29.74 in 6.2 mi NNW 5.8 mph - N/A   Mostly Cloudy
12:30 PM 93.2 °F 100.5 °F 71.6 °F 49% 29.74 in 6.2 mi East 4.6 mph - N/A   Mostly Cloudy
1:00 PM 94 °F - 71 °F 37% 29.74 in 6 mi East 3.5 mph - -   Partly Cloudy
1:00 PM 93.2 °F 98.8 °F 69.8 °F 46% 29.71 in 6.2 mi East 3.5 mph - N/A   Mostly Cloudy
1:30 PM 93.2 °F 98.8 °F 69.8 °F 46% 29.71 in 6.2 mi East 4.6 mph - N/A   Mostly Cloudy
2:00 PM 95.0 °F 101.3 °F 69.8 °F 44% 29.68 in 6.2 mi East 5.8 mph - N/A   Mostly Cloudy
2:30 PM 96.8 °F 103.1 °F 69.8 °F 41% 29.68 in 6.2 mi NE 5.8 mph - N/A   Mostly Cloudy
3:00 PM 95.0 °F 101.3 °F 69.8 °F 44% 29.68 in 6.2 mi Calm Calm - N/A   Mostly Cloudy
3:30 PM 93.2 °F 98.8 °F 69.8 °F 46% 29.68 in 6.2 mi East 2.3 mph - N/A   Mostly Cloudy
4:00 PM 93.2 °F 100.5 °F 71.6 °F 49% 29.68 in 6.2 mi West 3.5 mph - N/A   Mostly Cloudy
4:30 PM 93.2 °F 100.5 °F 71.6 °F 49% 29.68 in 6.2 mi NNW 8.1 mph - N/A   Mostly Cloudy
5:00 PM 93.2 °F 100.5 °F 71.6 °F 49% 29.68 in 6.2 mi West 6.9 mph - N/A   Mostly Cloudy
5:30 PM 91.4 °F 100.1 °F 73.4 °F 55% 29.68 in 6.2 mi West 9.2 mph - N/A   Mostly Cloudy
6:00 PM 91.4 °F 98.4 °F 71.6 °F 52% 29.68 in 5.6 mi WNW 4.6 mph - N/A   Mostly Cloudy
6:30 PM 89.6 °F 98.2 °F 73.4 °F 59% 29.71 in 5.6 mi NNW 4.6 mph - N/A   Mostly Cloudy
7:00 PM 89 °F - 72 °F 48% 29.73 in 6 mi NW 4.6 mph - -   Scattered Clouds
7:00 PM 89.6 °F 96.2 °F 71.6 °F 55% 29.71 in 6.2 mi NW 4.6 mph - N/A   Scattered Clouds
7:30 PM 87.8 °F 95.6 °F 73.4 °F 62% 29.74 in 6.2 mi NNW 3.5 mph - N/A   Scattered Clouds
8:00 PM 87.8 °F 95.6 °F 73.4 °F 62% 29.74 in 6.2 mi WNW 4.6 mph - N/A   Scattered Clouds
8:30 PM 87.8 °F 95.6 °F 73.4 °F 62% 29.74 in 6.2 mi North 4.6 mph - N/A   Scattered Clouds
9:00 PM 87.8 °F 95.6 °F 73.4 °F 62% 29.77 in 6.2 mi North 3.5 mph - N/A   Scattered Clouds
9:30 PM 86.0 °F 93.4 °F 73.4 °F 66% 29.77 in 6.2 mi NE 2.3 mph - N/A   Scattered Clouds
10:00 PM 86.0 °F 93.4 °F 73.4 °F 66% 29.77 in 6.2 mi South 2.3 mph - N/A   Scattered Clouds
10:30 PM 86.0 °F 93.4 °F 73.4 °F 66% 29.77 in 6.2 mi Calm Calm - N/A   Scattered Clouds
11:00 PM 86.0 °F 93.4 °F 73.4 °F 66% 29.77 in 6.2 mi SW 3.5 mph - N/A   Scattered Clouds
11:30 PM 86.0 °F 93.4 °F 73.4 °F 66% 29.77 in 6.2 mi SW 2.3 mph - N/A   Scattered Clouds